Wind_Speed
13 14 15 15 16 16 15 13 14 15 15 16 16 17 19 22 26 20 4 2 1 3 2 3 4 7 4 3 3 2 2 3 3 5 2 4 5 5 5 4 5 2 5 9 19
14 15 15 14 13 12 13 14 15 16 15 14 14 16 19 20 23 10 4 3 3 3 3 3 2 4 3 3 3 1 2 5 1 0 3 4 4 7 7 14 2 3 9 13 17
16 15 14 14 13 14 14 14 14 14 13 12 11 12 17 16 5 1 5 9 7 5 6 3 4 3 3 2 2 1 3 2 1 1 5 3 5 1 7 5 8 12 13 13 9
17 16 15 14 12 11 11 11 11 11 11 10 9 10 13 7 5 2 7 7 1 5 5 4 3 2 2 2 1 3 3 2 4 4 4 5 4 7 11 10 7 10 9 7 13
13 13 12 12 11 11 9 9 10 10 7 7 5 8 5 3 7 6 6 5 3 3 4 3 3 3 3 2 1 4 2 3 5 7 7 5 8 7 10 10 6 6 11 13 13
13 12 11 11 11 10 8 7 9 6 4 4 2 4 3 3 4 7 8 3 3 4 2 3 3 3 3 1 2 1 3 8 5 10 5 4 3 4 2 4 8 10 13 13 15
12 11 10 10 9 8 7 5 7 2 2 2 1 3 1 12 5 7 6 5 4 4 3 4 4 2 2 1 1 3 6 7 3 1 1 4 1 5 2 11 18 16 13 16 12
11 10 9 9 8 8 5 4 4 2 3 2 2 1 7 6 8 12 15 14 12 6 5 6 6 5 1 2 3 2 2 3 2 6 2 4 3 5 7 18 22 22 20 16 13
11 9 9 8 7 6 3 2 2 0 2 2 2 1 9 5 6 2 9 4 4 8 8 6 5 3 2 3 2 2 3 0 5 4 4 10 5 10 21 16 16 18 18 13 11
10 9 9 8 6 5 4 4 4 1 4 3 0 3 5 1 1 2 7 10 3 9 5 2 3 3 2 5 5 3 3 3 3 3 8 13 11 10 15 12 11 13 13 11 14
12 10 9 7 5 7 8 3 3 2 6 8 5 3 4 6 6 4 7 7 6 2 5 2 5 12 13 9 3 3 2 6 6 9 6 5 12 13 8 12 14 14 13 12 13
13 9 8 7 6 7 7 2 3 1 7 17 14 9 6 3 3 3 12 4 4 4 7 4 10 12 6 8 8 7 7 12 7 5 6 8 15 5 10 9 10 11 12 11 11
14 10 9 6 7 7 8 6 5 2 3 6 7 6 5 10 6 5 10 4 3 6 10 6 1 7 11 7 7 4 10 7 8 6 4 6 1 4 7 10 10 12 12 12 12
14 11 9 8 7 6 6 14 9 7 2 5 5 5 5 8 6 11 13 5 4 11 9 6 2 6 8 5 7 5 10 9 7 5 4 5 5 7 3 8 10 9 9 9 9
16 13 10 15 6 6 3 10 12 3 3 4 5 10 8 6 3 2 7 2 8 6 6 4 5 5 7 8 7 4 5 5 1 3 4 4 5 4 1 1 4 3 5 6 5
16 14 13 14 6 6 3 16 8 4 8 2 4 7 7 3 0 4 4 3 4 4 1 2 0 4 4 3 7 6 4 4 3 0 6 7 8 6 5 4 4 4 4 3 3
17 15 14 12 4 13 7 6 3 5 2 4 4 6 5 6 4 3 11 9 8 7 8 1 6 2 3 4 2 6 5 2 2 3 5 3 5 10 10 7 6 7 5 2 1
20 17 15 16 8 11 7 2 5 3 4 0 4 6 6 7 3 4 9 8 4 3 3 8 4 12 8 16 7 9 10 5 6 4 1 1 6 2 6 8 7 7 6 4 4
21 20 14 19 16 9 3 6 7 6 3 4 4 3 3 3 3 4 9 6 9 11 7 6 4 2 3 4 13 6 6 8 6 3 4 5 5 4 10 9 10 9 8 5 2
21 12 10 19 14 10 5 12 7 4 1 1 6 3 6 4 6 9 9 5 6 14 4 5 2 5 5 6 3 5 10 3 3 5 6 6 7 8 14 13 13 12 9 6 4
15 3 8 25 22 5 9 11 7 3 5 2 2 2 2 3 5 4 3 2 4 6 13 5 3 3 8 9 13 5 5 2 2 2 4 6 6 5 17 19 19 14 10 8 6
9 4 11 30 8 6 13 12 4 1 13 4 3 2 3 2 1 3 4 2 3 4 8 7 3 8 15 2 8 7 10 12 5 5 3 2 10 1 12 17 17 14 12 9 6
6 3 11 15 9 11 12 19 14 3 5 3 4 5 2 3 3 5 3 2 2 5 6 6 3 5 5 1 2 7 8 9 6 3 14 6 9 4 8 13 15 15 13 10 8
3 4 2 3 2 10 14 16 15 8 16 11 4 3 2 6 4 2 3 1 2 2 3 3 6 8 10 3 4 5 11 14 14 6 9 16 21 9 11 12 13 14 13 12 8
3 3 3 7 9 10 11 5 17 11 10 11 11 12 9 9 10 11 9 9 2 3 4 6 11 7 13 10 7 8 12 13 15 17 11 22 16 14 18 17 16 14 13 12 9
5 3 2 3 12 19 14 14 20 12 10 6 10 11 14 12 12 5 6 5 7 2 5 4 10 6 14 9 13 14 15 14 16 18 16 18 21 8 14 12 16 17 16 14 11
4 2 3 5 11 13 11 19 17 12 7 12 11 7 9 11 7 5 4 4 4 4 5 3 5 6 12 6 7 10 19 18 14 16 15 16 19 10 11 19 20 19 16 14 13
Wind_Direction
251 260 265 272 280 282 288 292 299 304 308 314 319 317 324 330 323 326 265 236 149 9 0 115 50 35 59 72 49 140 115 226 237 169 100 52 29 355 309 260 321 277 2 312 327
259 266 270 273 277 281 287 291 295 299 303 309 315 317 330 335 326 300 301 185 104 53 103 87 31 35 66 42 34 70 178 213 310 80 68 23 28 318 321 307 309 282 313 327 333
259 262 267 271 273 279 285 289 295 296 302 307 310 317 336 336 322 276 101 123 96 88 85 81 89 61 73 25 43 122 227 234 135 120 15 343 350 325 285 293 304 320 329 334 349
256 260 263 264 268 273 284 294 294 298 300 303 307 320 343 340 298 154 155 170 124 54 91 87 48 61 128 181 78 259 253 268 330 7 338 313 296 287 265 274 335 321 325 336 339
245 248 251 256 258 270 278 286 292 299 300 312 313 334 23 11 257 200 196 229 271 78 83 112 99 124 194 153 237 223 243 302 304 304 279 267 257 258 269 295 314 336 335 333 329
245 246 249 248 254 262 271 280 297 300 299 314 306 336 77 263 223 215 224 212 126 95 87 76 119 133 117 150 219 67 306 301 288 288 287 268 257 198 155 332 329 334 328 333 325
244 241 247 239 247 256 265 280 311 310 269 279 7 344 178 246 202 214 214 206 170 99 121 95 98 118 124 171 359 330 312 315 310 68 60 252 33 127 192 341 331 328 329 338 6
240 239 239 243 246 250 256 280 317 341 337 250 202 349 251 257 273 250 239 256 251 229 175 139 86 98 121 98 21 360 95 307 33 347 20 352 285 307 340 331 330 327 327 338 51
238 229 233 237 241 242 222 328 296 136 209 183 272 124 264 287 277 296 211 201 160 172 160 97 113 104 119 111 327 28 258 198 314 60 25 24 299 318 322 322 313 317 330 359 48
226 227 238 230 227 221 192 125 100 162 159 201 60 292 258 276 123 149 151 154 127 135 99 96 73 150 116 171 236 202 212 176 240 306 341 311 288 288 294 330 349 349 354 58 45
217 224 230 231 217 194 158 147 83 272 229 204 203 259 301 306 283 190 159 143 121 113 151 171 183 210 207 196 145 143 223 274 275 272 299 276 302 293 347 45 24 18 63 55 55
209 217 224 223 195 191 174 173 206 303 292 231 238 256 268 360 333 176 165 151 154 165 129 132 236 223 137 174 202 232 271 270 289 269 287 301 305 55 62 69 55 55 54 51 45
208 210 206 208 173 193 197 204 132 66 264 280 197 224 207 189 238 219 180 144 150 155 182 177 204 170 175 168 191 218 241 256 268 316 267 320 113 180 84 82 65 60 59 55 50
207 204 187 171 180 179 205 229 202 19 329 242 208 257 156 152 233 205 194 145 185 200 167 229 202 133 167 189 178 236 222 241 262 307 295 0 296 206 157 64 66 68 70 57 49
198 197 183 176 140 175 165 186 198 158 301 106 148 155 151 210 126 90 198 149 174 162 168 216 167 163 207 228 171 239 167 206 227 238 306 223 258 144 149 114 98 59 84 88 82
197 188 180 185 197 186 85 156 137 53 244 164 134 147 154 242 318 111 150 85 140 120 46 196 203 158 187 80 181 135 104 61 57 6 266 230 222 171 190 199 195 176 161 133 69
192 193 191 178 193 196 168 168 102 182 341 180 176 170 181 167 160 127 167 168 161 170 221 182 219 169 165 138 68 168 150 278 249 190 257 102 219 274 181 208 212 180 157 143 75
193 200 205 205 168 168 179 137 207 211 210 25 132 134 183 155 187 133 146 187 232 108 128 190 242 181 195 214 186 188 208 209 241 210 227 190 239 273 170 171 152 155 172 142 76
191 185 192 214 210 188 181 207 217 192 198 180 136 142 208 204 151 147 175 195 208 185 190 169 251 179 177 150 180 171 205 232 264 182 248 230 248 214 167 180 174 191 191 161 113
164 168 197 203 198 188 195 220 221 209 154 78 179 175 182 195 170 185 179 189 207 195 196 195 178 219 138 113 69 193 148 130 176 235 234 229 252 245 193 190 194 202 185 170 159
148 167 200 191 171 189 203 223 219 247 51 337 141 131 153 159 184 194 195 215 212 198 202 163 222 160 148 204 174 165 200 166 191 218 254 271 253 206 200 192 198 199 181 174 173
142 177 172 164 173 185 212 210 226 90 234 284 35 162 166 120 75 198 211 246 128 135 165 208 201 233 221 57 204 199 197 193 213 208 223 326 267 244 205 191 194 185 173 173 158
161 135 176 183 185 189 223 229 237 235 215 189 225 202 126 161 227 224 214 49 142 156 170 173 202 241 218 260 299 207 197 198 210 229 239 250 269 121 157 174 189 180 168 161 146
132 156 142 179 217 191 205 229 215 219 249 256 298 195 192 225 224 224 205 347 109 127 82 211 189 241 246 223 162 199 216 215 210 232 262 249 273 196 197 196 196 179 164 151 147
148 181 179 168 198 204 197 199 215 229 213 206 229 233 217 232 242 247 248 260 224 203 155 173 256 232 251 239 217 241 241 223 216 228 236 269 253 235 200 194 190 165 154 147 150
141 152 113 154 184 193 203 223 232 211 200 212 221 209 215 233 225 238 211 206 233 144 188 176 253 245 261 237 227 238 241 241 238 245 249 254 263 220 206 184 162 169 164 161 159
113 65 131 171 184 190 200 212 225 206 219 228 206 217 225 236 229 249 247 236 229 214 190 190 212 197 254 241 218 245 239 230 233 234 232 237 245 166 170 178 179 174 166 162 155
Height
822 822 822 823 822 822 821 819 820 817 814 813 812 811 808 805 800 797 795 794 793 793 794 793 793 790 792 794 796 798 804 804 802 807 801 801 802 798 793 792 791 787 787 786 784
820 819 820 820 819 819 820 817 817 816 813 811 810 810 807 804 799 796 793 793 792 793 793 793 795 792 794 797 799 800 806 802 803 803 803 804 805 802 798 790 793 790 787 787 785
817 816 817 817 817 817 817 815 814 813 812 810 809 808 807 804 801 794 793 793 793 793 791 795 795 794 798 798 802 809 804 802 798 801 806 805 803 802 797 795 791 791 789 787 786
813 813 813 814 815 813 813 814 813 812 810 809 807 807 804 805 805 793 793 793 794 793 793 795 796 800 801 801 804 808 804 804 802 803 805 805 803 801 797 792 791 791 790 788 785
809 808 809 811 811 812 810 810 811 811 809 807 807 807 804 808 797 793 792 794 795 794 794 794 797 802 804 802 803 805 804 803 803 805 804 804 802 800 796 791 790 790 789 787 786
805 805 807 807 809 809 808 808 808 808 809 806 806 806 806 809 790 791 793 794 793 794 795 794 797 799 803 806 804 805 805 805 802 798 802 802 798 798 798 794 792 789 788 787 784
803 803 805 805 806 807 806 807 806 806 807 807 805 805 806 795 787 789 791 793 793 794 795 795 797 799 802 806 805 805 808 804 801 799 799 799 798 796 793 791 788 785 784 784 787
800 801 803 805 803 805 805 805 805 805 806 807 805 805 798 785 786 786 788 791 792 793 794 795 796 798 802 805 807 808 812 807 802 801 802 797 804 796 793 788 783 781 780 785 793
799 800 801 802 802 805 803 804 804 804 806 806 807 805 794 784 783 783 784 789 790 792 795 795 797 800 804 808 809 814 806 816 808 803 803 805 807 795 790 792 791 786 785 789 796
797 796 801 800 800 804 803 804 804 807 805 806 806 807 787 783 781 782 784 788 790 793 797 798 801 803 811 806 801 805 809 814 813 804 805 807 805 801 793 796 798 796 792 797 801
794 795 799 799 799 800 802 806 808 808 806 793 792 790 785 781 782 783 783 786 789 792 795 800 800 797 795 802 807 810 810 811 809 805 811 804 803 797 798 802 804 801 801 805 808
791 793 797 798 796 799 800 802 802 804 798 789 789 788 786 785 783 781 783 784 788 791 796 802 799 794 800 806 807 807 809 806 807 803 804 799 798 801 804 810 816 814 812 812 811
788 791 793 796 795 800 798 800 800 800 800 783 782 783 781 786 783 779 780 782 788 793 793 794 789 790 796 803 807 810 808 807 808 806 802 801 798 804 807 809 816 815 815 816 817
785 789 790 792 799 796 797 797 798 801 803 778 779 776 777 779 779 773 776 777 787 787 794 792 787 792 795 797 802 808 802 803 806 806 804 802 801 799 807 806 813 818 823 824 823
781 787 789 790 790 795 794 793 798 802 792 769 775 772 775 777 769 771 774 775 782 786 788 785 789 792 794 792 798 799 802 803 805 806 809 804 805 797 807 804 819 821 822 822 823
780 782 786 787 789 791 793 793 796 807 789 765 771 768 778 775 769 770 772 774 780 785 786 785 787 786 786 795 795 799 803 808 813 812 804 791 793 788 801 804 816 820 820 821 823
776 780 784 784 785 789 792 795 799 798 758 760 762 767 768 770 770 770 773 774 774 788 788 788 785 786 786 791 800 795 800 806 808 815 795 799 798 770 803 806 806 812 818 822 824
769 776 780 784 783 786 790 791 800 761 762 753 754 763 763 762 764 769 772 776 777 778 788 785 783 783 779 778 785 796 793 798 799 800 792 801 787 774 798 807 809 813 817 820 824
765 770 776 780 783 785 788 787 769 765 753 754 752 755 760 758 759 762 768 772 768 770 771 783 780 778 779 780 780 795 794 786 795 808 802 779 781 796 801 808 809 812 815 820 825
759 767 768 775 779 785 781 770 764 756 752 751 753 753 757 758 757 760 765 759 763 763 764 770 776 773 779 777 784 781 785 796 801 792 789 773 775 765 797 804 806 808 812 819 823
756 763 759 766 776 784 772 762 755 753 753 754 754 756 754 755 756 760 757 756 756 760 762 768 769 777 778 773 773 785 784 788 789 792 775 769 758 771 776 783 794 801 810 816 819
748 757 756 760 771 772 767 752 754 755 754 758 756 756 754 755 757 758 758 757 757 760 765 764 769 766 765 770 764 766 768 774 782 787 795 794 758 766 766 774 789 798 806 812 817
740 748 752 755 758 762 759 755 758 757 754 757 757 755 754 758 761 758 755 758 757 757 761 765 773 766 766 775 772 766 766 768 774 781 771 778 752 770 773 779 788 794 802 810 817
737 742 749 752 752 749 753 754 758 754 759 758 760 756 757 758 760 758 760 757 759 760 762 763 768 760 757 765 764 771 763 761 766 766 762 753 750 768 775 780 787 790 801 808 815
730 731 733 742 747 747 748 745 752 755 751 753 756 759 756 760 758 758 758 759 760 760 764 765 760 764 754 755 756 752 752 754 756 755 760 740 749 746 763 768 777 794 804 808 814
723 727 734 736 736 741 744 744 744 745 747 755 754 754 756 755 752 752 755 758 754 764 765 770 757 764 754 756 755 755 750 750 751 748 747 746 743 751 757 768 786 791 797 802 811
718 724 726 734 734 738 737 732 733 742 744 743 748 752 753 752 755 753 757 757 755 758 765 769 764 766 750 751 758 757 742 741 740 739 740 744 733 756 764 770 775 784 792 800 808